BNI5E EPMO-EPMO

Flight info

Callsign BNI5E
Flight time 0h 20m
Altitude 2000
Route EPMO/26 DCT EPMOU DCT EPMOJ DCT EPMOP DCT EPMON DCT EPWAO DCT EPWAE DCT EPWA/33
Aircraft P208/L-SG/C

Departure

Time 2026-04-26 20:24
Airport Warsaw Modlin Airport (EPMO)

Arrival

Time 2026-04-26 20:44
Airport Warsaw Modlin Airport (EPMO)
Time Latitude Longitude Altitude Speed Heading
2026-04-26 20:08 52.17040 20.96507 330 ft 11 kts
2026-04-26 20:08 52.17071 20.96525 330 ft 3 kts 50°
2026-04-26 20:08 52.17111 20.96599 331 ft 9 kts 28°
2026-04-26 20:08 52.17184 20.96579 332 ft 16 kts 329°
2026-04-26 20:09 52.17378 20.96409 330 ft 37 kts 330°
2026-04-26 20:09 52.17606 20.96209 333 ft 36 kts 331°
2026-04-26 20:09 52.17820 20.96022 333 ft 31 kts 330°
2026-04-26 20:09 52.17902 20.95945 333 ft 0 kts
2026-04-26 20:10 52.17936 20.95924 332 ft 10 kts 335°
2026-04-26 20:10 52.17977 20.95942 333 ft 6 kts 50°
2026-04-26 20:10 52.17964 20.95984 331 ft 10 kts 157°
2026-04-26 20:10 52.17949 20.95995 333 ft 0 kts 148°
2026-04-26 20:17 52.17948 20.95995 333 ft 0 kts 212°
2026-04-26 20:17 52.17948 20.95994 333 ft 0 kts 250°
2026-04-26 20:18 52.17949 20.95992 333 ft 1 kts 334°
2026-04-26 20:18 52.17979 20.95969 333 ft 0 kts 285°
2026-04-26 20:18 52.17968 20.95918 333 ft 14 kts 238°
2026-04-26 20:18 52.17945 20.95889 331 ft 0 kts 146°
2026-04-26 20:19 52.17879 20.95973 331 ft 24 kts 143°
2026-04-26 20:19 52.17670 20.96158 331 ft 43 kts 153°
2026-04-26 20:19 52.17404 20.96391 333 ft 43 kts 150°
2026-04-26 20:19 52.17140 20.96620 333 ft 43 kts 152°
2026-04-26 20:20 52.16901 20.96831 333 ft 36 kts 152°
2026-04-26 20:20 52.16692 20.97022 332 ft 30 kts 141°
2026-04-26 20:20 52.16594 20.97312 331 ft 27 kts 116°
2026-04-26 20:20 52.16521 20.97570 332 ft 23 kts 114°
2026-04-26 20:21 52.16448 20.97763 333 ft 14 kts 158°
2026-04-26 20:21 52.16398 20.97769 333 ft 0 kts 183°
2026-04-26 20:22 52.16397 20.97769 333 ft 0 kts 173°
2026-04-26 20:22 52.16360 20.97765 332 ft 21 kts 202°
2026-04-26 20:22 52.16341 20.97509 329 ft 26 kts 309°
2026-04-26 20:22 52.16375 20.97417 332 ft 0 kts 298°
2026-04-26 20:23 52.16410 20.97304 330 ft 36 kts 298°
2026-04-26 20:23 52.16552 20.96685 388 ft 69 kts 291°
2026-04-26 20:23 52.16739 20.95952 614 ft 68 kts 300°
2026-04-26 20:23 52.16882 20.95151 696 ft 81 kts 291°
2026-04-26 20:24 52.17107 20.94480 943 ft 69 kts 319°
2026-04-26 20:24 52.17474 20.94683 1042 ft 82 kts 76°
2026-04-26 20:24 52.17475 20.95334 1104 ft 94 kts 88°
2026-04-26 20:24 52.17412 20.96726 1357 ft 89 kts 79°
2026-04-26 20:25 52.17497 20.97698 1511 ft 86 kts 57°
2026-04-26 20:25 52.17563 20.98003 1535 ft 90 kts 60°
2026-04-26 20:25 52.17849 20.99763 1575 ft 102 kts 67°
2026-04-26 20:25 52.17925 21.00511 1644 ft 102 kts 72°
2026-04-26 20:26 52.17989 21.01696 1564 ft 106 kts 76°
2026-04-26 20:26 52.18051 21.02888 1590 ft 106 kts 77°
2026-04-26 20:26 52.18126 21.04448 1515 ft 101 kts 71°
2026-04-26 20:26 52.18255 21.05190 1464 ft 101 kts 61°
2026-04-26 20:27 52.18504 21.06228 1471 ft 97 kts 57°
2026-04-26 20:27 52.18753 21.07294 1485 ft 102 kts 62°
2026-04-26 20:27 52.18944 21.08389 1469 ft 102 kts 62°
2026-04-26 20:27 52.19208 21.09454 1479 ft 98 kts 52°
2026-04-26 20:28 52.19698 21.10178 931 ft 92 kts 20°
2026-04-26 20:28 52.20412 21.10203 481 ft 102 kts 350°
2026-04-26 20:28 52.21087 21.09901 366 ft 97 kts 334°
2026-04-26 20:28 52.21560 21.09111 350 ft 105 kts 298°
2026-04-26 20:29 52.21787 21.07960 302 ft 106 kts 287°
2026-04-26 20:29 52.21857 21.06757 294 ft 106 kts 279°
2026-04-26 20:29 52.22113 21.05696 287 ft 102 kts 313°
2026-04-26 20:29 52.22630 21.04949 341 ft 99 kts 325°
2026-04-26 20:30 52.23244 21.04433 315 ft 99 kts 327°
2026-04-26 20:30 52.23822 21.03820 354 ft 95 kts 330°
2026-04-26 20:30 52.24380 21.03116 293 ft 101 kts 316°
2026-04-26 20:30 52.24822 21.02212 267 ft 101 kts 317°
2026-04-26 20:31 52.25415 21.01626 308 ft 97 kts 336°
2026-04-26 20:31 52.25656 21.01474 592 ft 11 kts 334°
2026-04-26 20:31 52.26225 21.01148 327 ft 83 kts 334°
2026-04-26 20:31 52.26641 21.00845 676 ft 76 kts 340°
2026-04-26 20:32 52.27150 21.00574 919 ft 76 kts 345°
2026-04-26 20:32 52.27667 21.00420 827 ft 82 kts 11°
2026-04-26 20:32 52.28214 21.00184 486 ft 103 kts 324°
2026-04-26 20:32 52.28765 20.99458 523 ft 101 kts 320°
2026-04-26 20:33 52.29187 20.98540 551 ft 103 kts 301°
2026-04-26 20:33 52.29504 20.97491 578 ft 102 kts 302°
2026-04-26 20:33 52.29894 20.96587 699 ft 96 kts 312°
2026-04-26 20:33 52.30323 20.95742 776 ft 98 kts 313°
2026-04-26 20:34 52.30749 20.94916 996 ft 84 kts 316°
2026-04-26 20:34 52.31242 20.94049 668 ft 106 kts 317°
2026-04-26 20:34 52.31756 20.93401 825 ft 101 kts 329°
2026-04-26 20:34 52.32375 20.92889 878 ft 97 kts 337°
2026-04-26 20:35 52.33013 20.92479 909 ft 98 kts 340°
2026-04-26 20:35 52.33674 20.92088 870 ft 105 kts 341°
2026-04-26 20:35 52.34382 20.91740 862 ft 105 kts 347°
2026-04-26 20:35 52.35088 20.91528 817 ft 105 kts 350°
2026-04-26 20:36 52.35801 20.91263 821 ft 105 kts 347°
2026-04-26 20:36 52.36524 20.90980 728 ft 107 kts 344°
2026-04-26 20:36 52.37181 20.90536 414 ft 121 kts 328°
2026-04-26 20:36 52.37682 20.89602 464 ft 105 kts 299°
2026-04-26 20:37 52.37957 20.88521 506 ft 103 kts 291°
2026-04-26 20:37 52.38154 20.87393 492 ft 106 kts 280°
2026-04-26 20:37 52.38088 20.86192 502 ft 106 kts 262°
2026-04-26 20:37 52.37897 20.85018 442 ft 111 kts 256°
2026-04-26 20:38 52.37707 20.83836 532 ft 96 kts 263°
2026-04-26 20:38 52.37589 20.82847 767 ft 90 kts 263°
2026-04-26 20:38 52.37904 20.82108 610 ft 99 kts 313°
2026-04-26 20:38 52.38388 20.81268 573 ft 104 kts 318°
2026-04-26 20:39 52.38963 20.80513 487 ft 108 kts 320°
2026-04-26 20:39 52.39377 20.79495 354 ft 110 kts 295°
2026-04-26 20:39 52.39679 20.78342 244 ft 111 kts 294°
2026-04-26 20:39 52.39989 20.77273 390 ft 93 kts 298°
2026-04-26 20:40 52.40284 20.76248 308 ft 103 kts 291°
2026-04-26 20:40 52.40517 20.75178 354 ft 103 kts 280°
2026-04-26 20:40 52.40575 20.74291 579 ft 70 kts 277°
2026-04-26 20:40 52.40626 20.73286 720 ft 78 kts 277°
2026-04-26 20:41 52.40663 20.72583 1104 ft 64 kts 284°
2026-04-26 20:41 52.40893 20.71543 353 ft 130 kts 307°
2026-04-26 20:41 52.41375 20.70656 699 ft 90 kts 310°
2026-04-26 20:41 52.41858 20.70014 844 ft 80 kts 338°
2026-04-26 20:42 52.42398 20.69529 931 ft 97 kts 323°
2026-04-26 20:42 52.43048 20.69070 811 ft 106 kts 354°
2026-04-26 20:42 52.43764 20.69205 842 ft 103 kts 12°
2026-04-26 20:42 52.44426 20.69503 902 ft 101 kts 19°
2026-04-26 20:43 52.44989 20.70326 728 ft 114 kts 58°
2026-04-26 20:43 52.45441 20.71038 865 ft 92 kts 340°
2026-04-26 20:43 52.45550 20.70027 759 ft 109 kts 257°
2026-04-26 20:43 52.45404 20.68803 658 ft 109 kts 265°
2026-04-26 20:44 52.45339 20.67572 486 ft 103 kts 264°
2026-04-26 20:44 52.45252 20.66558 362 ft 76 kts 262°
2026-04-26 20:44 52.45182 20.65832 344 ft 50 kts 261°
2026-04-26 20:44 52.45168 20.65710 347 ft 0 kts 253°
2026-04-26 20:45 52.45166 20.65707 350 ft 0 kts 150°
2026-04-26 20:45 52.45181 20.65831 352 ft 17 kts 78°
2026-04-26 20:45 52.45167 20.65938 342 ft 5 kts 126°
2026-04-26 20:45 52.45064 20.66047 346 ft 33 kts 160°
2026-04-26 20:46 52.44898 20.66150 337 ft 18 kts 138°
2026-04-26 20:46 52.44881 20.66262 347 ft 12 kts 78°
2026-04-26 20:46 52.44901 20.66435 349 ft 20 kts 75°
2026-04-26 20:46 52.44913 20.66571 348 ft 1 kts 108°
2026-04-26 20:47 52.44877 20.66629 348 ft 5 kts 99°
2026-04-26 20:47 52.44877 20.66633 348 ft 0 kts 62°
2026-04-26 20:47 52.44892 20.66640 353 ft 0 kts 342°